Year,Month,Day,Hour,Minute,Value (Times are PST for temperature in C)
2010,08,25,00,00,15.00
2010,08,25,00,01,15.00
2010,08,25,00,02,15.00
2010,08,25,00,03,15.00
2010,08,25,00,04,15.00
2010,08,25,00,05,15.00
2010,08,25,00,06,15.00
2010,08,25,00,07,15.00
2010,08,25,00,08,15.00
2010,08,25,00,09,15.00
2010,08,25,00,10,15.00
2010,08,25,00,11,15.00
2010,08,25,00,12,15.00
2010,08,25,00,13,15.00
2010,08,25,00,14,15.00
2010,08,25,00,15,15.00
2010,08,25,00,16,15.00
2010,08,25,00,17,15.00
2010,08,25,00,18,15.00
2010,08,25,00,19,15.00
2010,08,25,00,20,15.00
2010,08,25,00,21,14.90
2010,08,25,00,22,14.90
2010,08,25,00,23,14.90
2010,08,25,00,24,14.90
2010,08,25,00,25,14.90
2010,08,25,00,26,14.90
2010,08,25,00,27,14.90
2010,08,25,00,28,14.90
2010,08,25,00,29,14.90
2010,08,25,00,30,14.90
2010,08,25,00,31,14.90
2010,08,25,00,32,14.90
2010,08,25,00,33,14.90
2010,08,25,00,34,14.90
2010,08,25,00,35,14.80
2010,08,25,00,36,14.80
2010,08,25,00,37,14.80
2010,08,25,00,38,14.80
2010,08,25,00,39,14.80
2010,08,25,00,40,14.80
2010,08,25,00,41,14.80
2010,08,25,00,42,14.80
2010,08,25,00,43,14.80
2010,08,25,00,44,14.80
2010,08,25,00,45,14.80
2010,08,25,00,46,14.80
2010,08,25,00,47,14.70
2010,08,25,00,48,14.70
2010,08,25,00,49,14.70
2010,08,25,00,50,14.70
2010,08,25,00,51,14.70
2010,08,25,00,52,14.70
2010,08,25,00,53,14.70
2010,08,25,00,54,14.70
2010,08,25,00,55,14.70
2010,08,25,00,56,14.70
2010,08,25,00,57,14.60
2010,08,25,00,58,14.60
2010,08,25,00,59,14.60
2010,08,25,01,00,14.60
2010,08,25,01,01,14.60
2010,08,25,01,02,14.60
2010,08,25,01,03,14.60
2010,08,25,01,04,14.60
2010,08,25,01,05,14.60
2010,08,25,01,06,14.60
2010,08,25,01,07,14.60
2010,08,25,01,08,14.60
2010,08,25,01,09,14.60
2010,08,25,01,10,14.60
2010,08,25,01,11,14.60
2010,08,25,01,12,14.50
2010,08,25,01,13,14.50
2010,08,25,01,14,14.50
2010,08,25,01,15,14.50
2010,08,25,01,16,14.50
2010,08,25,01,17,14.50
2010,08,25,01,18,14.50
2010,08,25,01,19,14.50
2010,08,25,01,20,14.50
2010,08,25,01,21,14.50
2010,08,25,01,22,14.50
2010,08,25,01,23,14.40
2010,08,25,01,24,14.40
2010,08,25,01,25,14.40
2010,08,25,01,26,14.40
2010,08,25,01,27,14.30
2010,08,25,01,28,14.30
2010,08,25,01,29,14.30
2010,08,25,01,30,14.30
2010,08,25,01,31,14.30
2010,08,25,01,32,14.30
2010,08,25,01,33,14.30
2010,08,25,01,34,14.20
2010,08,25,01,35,14.20
2010,08,25,01,36,14.20
2010,08,25,01,37,14.20
2010,08,25,01,38,14.20
2010,08,25,01,39,14.20
2010,08,25,01,40,14.20
2010,08,25,01,41,14.20
2010,08,25,01,42,14.20
2010,08,25,01,43,14.20
2010,08,25,01,44,14.20
2010,08,25,01,45,14.20
2010,08,25,01,46,14.20
2010,08,25,01,47,14.20
2010,08,25,01,48,14.20
2010,08,25,01,49,14.20
2010,08,25,01,50,14.20
2010,08,25,01,51,14.20
2010,08,25,01,52,14.20
2010,08,25,01,53,14.20
2010,08,25,01,54,14.20
2010,08,25,01,55,14.20
2010,08,25,01,56,14.20
2010,08,25,01,57,14.20
2010,08,25,01,58,14.10
2010,08,25,01,59,14.10
2010,08,25,02,00,14.10
2010,08,25,02,01,14.10
2010,08,25,02,02,14.00
2010,08,25,02,03,14.00
2010,08,25,02,04,14.00
2010,08,25,02,05,14.00
2010,08,25,02,06,13.90
2010,08,25,02,07,13.90
2010,08,25,02,08,13.90
2010,08,25,02,09,13.90
2010,08,25,02,10,13.80
2010,08,25,02,11,13.80
2010,08,25,02,12,13.80
2010,08,25,02,13,13.80
2010,08,25,02,14,13.70
2010,08,25,02,15,13.70
2010,08,25,02,16,13.70
2010,08,25,02,17,13.70
2010,08,25,02,18,13.70
2010,08,25,02,19,13.70
2010,08,25,02,20,13.70
2010,08,25,02,21,13.70
2010,08,25,02,22,13.70
2010,08,25,02,23,13.70
2010,08,25,02,24,13.70
2010,08,25,02,25,13.60
2010,08,25,02,26,13.60
2010,08,25,02,27,13.60
2010,08,25,02,28,13.60
2010,08,25,02,29,13.60
2010,08,25,02,30,13.60
2010,08,25,02,31,13.60
2010,08,25,02,32,13.60
2010,08,25,02,33,13.60
2010,08,25,02,34,13.60
2010,08,25,02,35,13.60
2010,08,25,02,36,13.50
2010,08,25,02,37,13.50
2010,08,25,02,38,13.50
2010,08,25,02,39,13.50
2010,08,25,02,40,13.50
2010,08,25,02,41,13.50
2010,08,25,02,42,13.50
2010,08,25,02,43,13.50
2010,08,25,02,44,13.40
2010,08,25,02,45,13.40
2010,08,25,02,46,13.40
2010,08,25,02,47,13.40
2010,08,25,02,48,13.40
2010,08,25,02,49,13.40
2010,08,25,02,50,13.40
2010,08,25,02,51,13.40
2010,08,25,02,52,13.30
2010,08,25,02,53,13.30
2010,08,25,02,54,13.30
2010,08,25,02,55,13.30
2010,08,25,02,56,13.30
2010,08,25,02,57,13.30
2010,08,25,02,58,13.30
2010,08,25,02,59,13.30
2010,08,25,03,00,13.30
2010,08,25,03,01,13.30
2010,08,25,03,02,13.30
2010,08,25,03,03,13.30
2010,08,25,03,04,13.30
2010,08,25,03,05,13.30
2010,08,25,03,06,13.20
2010,08,25,03,07,13.20
2010,08,25,03,08,13.20
2010,08,25,03,09,13.20
2010,08,25,03,10,13.20
2010,08,25,03,11,13.20
2010,08,25,03,12,13.20
2010,08,25,03,13,13.20
2010,08,25,03,14,13.20
2010,08,25,03,15,13.20
2010,08,25,03,16,13.10
2010,08,25,03,17,13.10
2010,08,25,03,18,13.10
2010,08,25,03,19,13.10
2010,08,25,03,20,13.10
2010,08,25,03,21,13.10
2010,08,25,03,22,13.10
2010,08,25,03,23,13.10
2010,08,25,03,24,13.10
2010,08,25,03,25,13.10
2010,08,25,03,26,13.10
2010,08,25,03,27,13.10
2010,08,25,03,28,13.10
2010,08,25,03,29,13.10
2010,08,25,03,30,13.10
2010,08,25,03,31,13.10
2010,08,25,03,32,13.10
2010,08,25,03,33,13.10
2010,08,25,03,34,13.00
2010,08,25,03,35,13.00
2010,08,25,03,36,13.00
2010,08,25,03,37,13.00
2010,08,25,03,38,13.00
2010,08,25,03,39,13.00
2010,08,25,03,40,13.00
2010,08,25,03,41,13.00
2010,08,25,03,42,13.00
2010,08,25,03,43,13.00
2010,08,25,03,44,13.00
2010,08,25,03,45,13.00
2010,08,25,03,46,13.00
2010,08,25,03,47,12.90
2010,08,25,03,48,12.90
2010,08,25,03,49,12.90
2010,08,25,03,50,12.90
2010,08,25,03,51,12.90
2010,08,25,03,52,12.90
2010,08,25,03,53,12.90
2010,08,25,03,54,12.90
2010,08,25,03,55,12.90
2010,08,25,03,56,12.80
2010,08,25,03,57,12.80
2010,08,25,03,58,12.80
2010,08,25,03,59,12.80
2010,08,25,04,00,12.80
2010,08,25,04,01,12.80
2010,08,25,04,02,12.80
2010,08,25,04,03,12.80
2010,08,25,04,04,12.80
2010,08,25,04,05,12.80
2010,08,25,04,06,12.80
2010,08,25,04,07,12.80
2010,08,25,04,08,12.80
2010,08,25,04,09,12.80
2010,08,25,04,10,12.80
2010,08,25,04,11,12.80
2010,08,25,04,12,12.80
2010,08,25,04,13,12.80
2010,08,25,04,14,12.80
2010,08,25,04,15,12.80
2010,08,25,04,16,12.80
2010,08,25,04,17,12.70
2010,08,25,04,18,12.70
2010,08,25,04,19,12.70
2010,08,25,04,20,12.60
2010,08,25,04,21,12.60
2010,08,25,04,22,12.60
2010,08,25,04,23,12.60
2010,08,25,04,24,12.60
2010,08,25,04,25,12.50
2010,08,25,04,26,12.50
2010,08,25,04,27,12.50
2010,08,25,04,28,12.50
2010,08,25,04,29,12.50
2010,08,25,04,30,12.50
2010,08,25,04,31,12.40
2010,08,25,04,32,12.40
2010,08,25,04,33,12.40
2010,08,25,04,34,12.40
2010,08,25,04,35,12.40
2010,08,25,04,36,12.40
2010,08,25,04,37,12.30
2010,08,25,04,38,12.30
2010,08,25,04,39,12.30
2010,08,25,04,40,12.30
2010,08,25,04,41,12.30
2010,08,25,04,42,12.30
2010,08,25,04,43,12.30
2010,08,25,04,44,12.30
2010,08,25,04,45,12.30
2010,08,25,04,46,12.30
2010,08,25,04,47,12.30
2010,08,25,04,48,12.20
2010,08,25,04,49,12.20
2010,08,25,04,50,12.20
2010,08,25,04,51,12.20
2010,08,25,04,52,12.20
2010,08,25,04,53,12.20
2010,08,25,04,54,12.10
2010,08,25,04,55,12.10
2010,08,25,04,56,12.10
2010,08,25,04,57,12.10
2010,08,25,04,58,12.00
2010,08,25,04,59,12.00
2010,08,25,05,00,12.00
2010,08,25,05,01,12.00
2010,08,25,05,02,12.00
2010,08,25,05,03,12.00
2010,08,25,05,04,11.90
2010,08,25,05,05,11.90
2010,08,25,05,06,11.90
2010,08,25,05,07,11.90
2010,08,25,05,08,11.90
2010,08,25,05,09,11.90
2010,08,25,05,10,11.90
2010,08,25,05,11,11.90
2010,08,25,05,12,11.90
2010,08,25,05,13,11.90
2010,08,25,05,14,11.90
2010,08,25,05,15,11.90
2010,08,25,05,16,11.90
2010,08,25,05,17,11.90
2010,08,25,05,18,11.90
2010,08,25,05,19,11.90
2010,08,25,05,20,11.90
2010,08,25,05,21,11.80
2010,08,25,05,22,11.80
2010,08,25,05,23,11.80
2010,08,25,05,24,11.80
2010,08,25,05,25,11.80
2010,08,25,05,26,11.80
2010,08,25,05,27,11.80
2010,08,25,05,28,11.80
2010,08,25,05,29,11.80
2010,08,25,05,30,11.80
2010,08,25,05,31,11.80
2010,08,25,05,32,11.80
2010,08,25,05,33,11.80
2010,08,25,05,34,11.80
2010,08,25,05,35,11.80
2010,08,25,05,36,11.80
2010,08,25,05,37,11.70
2010,08,25,05,38,11.70
2010,08,25,05,39,11.70
2010,08,25,05,40,11.70
2010,08,25,05,41,11.70
2010,08,25,05,42,11.70
2010,08,25,05,43,11.70
2010,08,25,05,44,11.70
2010,08,25,05,45,11.70
2010,08,25,05,46,11.70
2010,08,25,05,47,11.70
2010,08,25,05,48,11.70
2010,08,25,05,49,11.70
2010,08,25,05,50,11.70
2010,08,25,05,51,11.70
2010,08,25,05,52,11.70
2010,08,25,05,53,11.70
2010,08,25,05,54,11.60
2010,08,25,05,55,11.60
2010,08,25,05,56,11.60
2010,08,25,05,57,11.60
2010,08,25,05,58,11.60
2010,08,25,05,59,11.60
2010,08,25,06,00,11.60
2010,08,25,06,01,11.60
2010,08,25,06,02,11.60
2010,08,25,06,03,11.60
2010,08,25,06,04,11.60
2010,08,25,06,05,11.60
2010,08,25,06,06,11.60
2010,08,25,06,07,11.60
2010,08,25,06,08,11.60
2010,08,25,06,09,11.60
2010,08,25,06,10,11.60
2010,08,25,06,11,11.60
2010,08,25,06,12,11.60
2010,08,25,06,13,11.60
2010,08,25,06,14,11.60
2010,08,25,06,15,11.60
2010,08,25,06,16,11.60
2010,08,25,06,17,11.60
2010,08,25,06,18,11.60
2010,08,25,06,19,11.60
2010,08,25,06,20,11.60
2010,08,25,06,21,11.60
2010,08,25,06,22,11.60
2010,08,25,06,23,11.60
2010,08,25,06,24,11.60
2010,08,25,06,25,11.60
2010,08,25,06,26,11.60
2010,08,25,06,27,11.60
2010,08,25,06,28,11.60
2010,08,25,06,29,11.60
2010,08,25,06,30,11.60
2010,08,25,06,31,11.60
2010,08,25,06,32,11.60
2010,08,25,06,33,11.60
2010,08,25,06,34,11.60
2010,08,25,06,35,11.60
2010,08,25,06,36,11.60
2010,08,25,06,37,11.60
2010,08,25,06,38,11.60
2010,08,25,06,39,11.60
2010,08,25,06,40,11.60
2010,08,25,06,41,11.60
2010,08,25,06,42,11.60
2010,08,25,06,43,11.60
2010,08,25,06,44,11.60
2010,08,25,06,45,11.60
2010,08,25,06,46,11.60
2010,08,25,06,47,11.60
2010,08,25,06,48,11.60
2010,08,25,06,49,11.60
2010,08,25,06,50,11.60
2010,08,25,06,51,11.60
2010,08,25,06,52,11.60
2010,08,25,06,53,11.60
2010,08,25,06,54,11.60
2010,08,25,06,55,11.60
2010,08,25,06,56,11.60
2010,08,25,06,57,11.60
2010,08,25,06,58,11.60
2010,08,25,06,59,11.60
2010,08,25,07,00,11.60
2010,08,25,07,01,11.60
2010,08,25,07,02,11.60
2010,08,25,07,03,11.60
2010,08,25,07,04,11.60
2010,08,25,07,05,11.60
2010,08,25,07,06,11.60
2010,08,25,07,07,11.60
2010,08,25,07,08,11.60
2010,08,25,07,09,11.70
2010,08,25,07,10,11.70
2010,08,25,07,11,11.70
2010,08,25,07,12,11.70
2010,08,25,07,13,11.70
2010,08,25,07,14,11.70
2010,08,25,07,15,11.70
2010,08,25,07,16,11.70
2010,08,25,07,17,11.70
2010,08,25,07,18,11.70
2010,08,25,07,19,11.70
2010,08,25,07,20,11.70
2010,08,25,07,21,11.80
2010,08,25,07,22,11.80
2010,08,25,07,23,11.80
2010,08,25,07,24,11.80
2010,08,25,07,25,11.80
2010,08,25,07,26,11.80
2010,08,25,07,27,11.80
2010,08,25,07,28,11.80
2010,08,25,07,29,11.80
2010,08,25,07,30,11.80
2010,08,25,07,31,11.80
2010,08,25,07,32,11.80
2010,08,25,07,33,11.80
2010,08,25,07,34,11.80
2010,08,25,07,35,11.80
2010,08,25,07,36,11.80
2010,08,25,07,37,11.90
2010,08,25,07,38,11.90
2010,08,25,07,39,11.90
2010,08,25,07,40,11.90
2010,08,25,07,41,11.90
2010,08,25,07,42,11.90
2010,08,25,07,43,12.00
2010,08,25,07,44,12.00
2010,08,25,07,45,12.00
2010,08,25,07,46,12.00
2010,08,25,07,47,12.00
2010,08,25,07,48,12.10
2010,08,25,07,49,12.10
2010,08,25,07,50,12.10
2010,08,25,07,51,12.10
2010,08,25,07,52,12.20
2010,08,25,07,53,12.20
2010,08,25,07,54,12.20
2010,08,25,07,55,12.30
2010,08,25,07,56,12.30
2010,08,25,07,57,12.30
2010,08,25,07,58,12.30
2010,08,25,07,59,12.30
2010,08,25,08,00,12.40
2010,08,25,08,01,12.40
2010,08,25,08,02,12.50
2010,08,25,08,03,12.50
2010,08,25,08,04,12.50
2010,08,25,08,05,12.60
2010,08,25,08,06,12.60
2010,08,25,08,07,12.60
2010,08,25,08,08,12.70
2010,08,25,08,09,12.70
2010,08,25,08,10,12.70
2010,08,25,08,11,12.80
2010,08,25,08,12,12.80
2010,08,25,08,13,12.80
2010,08,25,08,14,12.80
2010,08,25,08,15,12.90
2010,08,25,08,16,12.90
2010,08,25,08,17,13.00
2010,08,25,08,18,13.00
2010,08,25,08,19,13.10
2010,08,25,08,20,13.10
2010,08,25,08,21,13.20
2010,08,25,08,22,13.20
2010,08,25,08,23,13.30
2010,08,25,08,24,13.30
2010,08,25,08,25,13.30
2010,08,25,08,26,13.40
2010,08,25,08,27,13.50
2010,08,25,08,28,13.50
2010,08,25,08,29,13.60
2010,08,25,08,30,13.60
2010,08,25,08,31,13.70
2010,08,25,08,32,13.70
2010,08,25,08,33,13.70
2010,08,25,08,34,13.80
2010,08,25,08,35,13.90
2010,08,25,08,36,13.90
2010,08,25,08,37,14.00
2010,08,25,08,38,14.10
2010,08,25,08,39,14.20
2010,08,25,08,40,14.20
2010,08,25,08,41,14.30
2010,08,25,08,42,14.40
2010,08,25,08,43,14.50
2010,08,25,08,44,14.50
2010,08,25,08,45,14.60
2010,08,25,08,46,14.70
2010,08,25,08,47,14.80
2010,08,25,08,48,14.90
2010,08,25,08,49,15.00
2010,08,25,08,50,15.10
2010,08,25,08,51,15.10
2010,08,25,08,52,15.20
2010,08,25,08,53,15.30
2010,08,25,08,54,15.30
2010,08,25,08,55,15.40
2010,08,25,08,56,15.50
2010,08,25,08,57,15.50
2010,08,25,08,58,15.60
2010,08,25,08,59,15.60
2010,08,25,09,00,15.70
2010,08,25,09,01,15.80
2010,08,25,09,02,15.90
2010,08,25,09,03,16.00
2010,08,25,09,04,16.10
2010,08,25,09,05,16.20
2010,08,25,09,06,16.30
2010,08,25,09,07,16.40
2010,08,25,09,08,16.40
2010,08,25,09,09,16.60
2010,08,25,09,10,16.70
2010,08,25,09,11,16.90
2010,08,25,09,12,17.00
2010,08,25,09,13,17.10
2010,08,25,09,14,17.30
2010,08,25,09,15,17.30
2010,08,25,09,16,17.50
2010,08,25,09,17,17.60
2010,08,25,09,18,17.60
2010,08,25,09,19,17.80
2010,08,25,09,20,17.80
2010,08,25,09,21,17.90
2010,08,25,09,22,17.90
2010,08,25,09,23,18.00
2010,08,25,09,24,18.10
2010,08,25,09,25,18.20
2010,08,25,09,26,18.20
2010,08,25,09,27,18.30
2010,08,25,09,28,18.30
2010,08,25,09,29,18.40
2010,08,25,09,30,18.50
2010,08,25,09,31,18.50
2010,08,25,09,32,18.60
2010,08,25,09,33,18.60
2010,08,25,09,34,18.70
2010,08,25,09,35,18.80
2010,08,25,09,36,18.90
2010,08,25,09,37,18.90
2010,08,25,09,38,18.90
2010,08,25,09,39,19.10
2010,08,25,09,40,19.10
2010,08,25,09,41,19.10
2010,08,25,09,42,19.20
2010,08,25,09,43,19.30
2010,08,25,09,44,19.30
2010,08,25,09,45,19.40
2010,08,25,09,46,19.50
2010,08,25,09,47,19.60
2010,08,25,09,48,19.70
2010,08,25,09,49,19.80
2010,08,25,09,50,19.80
2010,08,25,09,51,19.90
2010,08,25,09,52,19.90
2010,08,25,09,53,19.90
2010,08,25,09,54,19.90
2010,08,25,09,55,20.10
2010,08,25,09,56,20.10
2010,08,25,09,57,20.10
2010,08,25,09,58,20.20
2010,08,25,09,59,20.20
2010,08,25,10,00,20.20
2010,08,25,10,01,20.20
2010,08,25,10,02,20.20
2010,08,25,10,03,20.30
2010,08,25,10,04,20.30
2010,08,25,10,05,20.40
2010,08,25,10,06,20.40
2010,08,25,10,07,20.50
2010,08,25,10,08,20.50
2010,08,25,10,09,20.50
2010,08,25,10,10,20.60
2010,08,25,10,11,20.60
2010,08,25,10,12,20.70
2010,08,25,10,13,20.80
2010,08,25,10,14,20.80
2010,08,25,10,15,20.80
2010,08,25,10,16,20.90
2010,08,25,10,17,20.90
2010,08,25,10,18,20.90
2010,08,25,10,19,20.90
2010,08,25,10,20,21.00
2010,08,25,10,21,21.00
2010,08,25,10,22,21.00
2010,08,25,10,23,21.00
2010,08,25,10,24,21.10
2010,08,25,10,25,21.10
2010,08,25,10,26,21.20
2010,08,25,10,27,21.20
2010,08,25,10,28,21.30
2010,08,25,10,29,21.30
2010,08,25,10,30,21.30
2010,08,25,10,31,21.40
2010,08,25,10,32,21.40
2010,08,25,10,33,21.50
2010,08,25,10,34,21.60
2010,08,25,10,35,21.60
2010,08,25,10,36,21.60
2010,08,25,10,37,21.60
2010,08,25,10,38,21.60
2010,08,25,10,39,21.60
2010,08,25,10,40,21.70
2010,08,25,10,41,21.70
2010,08,25,10,42,21.70
2010,08,25,10,43,21.80
2010,08,25,10,44,21.80
2010,08,25,10,45,21.80
2010,08,25,10,46,21.80
2010,08,25,10,47,21.80
2010,08,25,10,48,21.80
2010,08,25,10,49,21.90
2010,08,25,10,50,21.90
2010,08,25,10,51,21.90
2010,08,25,10,52,21.90
2010,08,25,10,53,21.90
2010,08,25,10,54,21.90
2010,08,25,10,55,21.90
2010,08,25,10,56,21.90
2010,08,25,10,57,21.90
2010,08,25,10,58,21.90
2010,08,25,10,59,21.90
2010,08,25,11,00,21.90
2010,08,25,11,01,22.00
2010,08,25,11,02,22.00
2010,08,25,11,03,22.00
2010,08,25,11,04,22.00
2010,08,25,11,05,22.00
2010,08,25,11,06,22.00
2010,08,25,11,07,22.00
2010,08,25,11,08,22.00
2010,08,25,11,09,22.00
2010,08,25,11,10,22.00
2010,08,25,11,11,22.00
2010,08,25,11,12,22.00
2010,08,25,11,13,22.00
2010,08,25,11,14,22.00
2010,08,25,11,15,21.90
2010,08,25,11,16,22.00
2010,08,25,11,17,22.00
2010,08,25,11,18,22.00
2010,08,25,11,19,22.00
2010,08,25,11,20,22.00
2010,08,25,11,21,22.00
2010,08,25,11,22,22.00
2010,08,25,11,23,22.10
2010,08,25,11,24,22.10
2010,08,25,11,25,22.10
2010,08,25,11,26,22.10
2010,08,25,11,27,22.10
2010,08,25,11,28,22.10
2010,08,25,11,29,22.20
2010,08,25,11,30,22.20
2010,08,25,11,31,22.20
2010,08,25,11,32,22.20
2010,08,25,11,33,22.20
2010,08,25,11,34,22.20
2010,08,25,11,35,22.20
2010,08,25,11,36,22.30
2010,08,25,11,37,22.30
2010,08,25,11,38,22.30
2010,08,25,11,39,22.30
2010,08,25,11,40,22.40
2010,08,25,11,41,22.40
2010,08,25,11,42,22.40
2010,08,25,11,43,22.40
2010,08,25,11,44,22.40
2010,08,25,11,45,22.50
2010,08,25,11,46,22.50
2010,08,25,11,47,22.50
2010,08,25,11,48,22.60
2010,08,25,11,49,22.60
2010,08,25,11,50,22.60
2010,08,25,11,51,22.60
2010,08,25,11,52,22.60
2010,08,25,11,53,22.70
2010,08,25,11,54,22.70
2010,08,25,11,55,22.70
2010,08,25,11,56,22.70
2010,08,25,11,57,22.70
2010,08,25,11,58,22.80
2010,08,25,11,59,22.80
2010,08,25,12,00,22.80
2010,08,25,12,01,22.80
2010,08,25,12,02,22.80
2010,08,25,12,03,22.80
2010,08,25,12,04,22.80
2010,08,25,12,05,22.80
2010,08,25,12,06,22.80
2010,08,25,12,07,22.80
2010,08,25,12,08,22.80
2010,08,25,12,09,22.80
2010,08,25,12,10,22.80
2010,08,25,12,11,22.80
2010,08,25,12,12,22.80
2010,08,25,12,13,22.80
2010,08,25,12,14,22.80
2010,08,25,12,15,22.80
2010,08,25,12,16,22.80
2010,08,25,12,17,22.90
2010,08,25,12,18,22.90
2010,08,25,12,19,22.90
2010,08,25,12,20,22.90
2010,08,25,12,21,22.90
2010,08,25,12,22,22.90
2010,08,25,12,23,22.90
2010,08,25,12,24,22.90
2010,08,25,12,25,22.90
2010,08,25,12,26,22.90
2010,08,25,12,27,23.00
2010,08,25,12,28,23.10
2010,08,25,12,29,23.10
2010,08,25,12,30,23.10
2010,08,25,12,31,23.10
2010,08,25,12,32,23.10
2010,08,25,12,33,23.10
2010,08,25,12,34,23.20
2010,08,25,12,35,23.20
2010,08,25,12,36,23.20
2010,08,25,12,37,23.20
2010,08,25,12,38,23.20
2010,08,25,12,39,23.30
2010,08,25,12,40,23.30
2010,08,25,12,41,23.30
2010,08,25,12,42,23.30
2010,08,25,12,43,23.30
2010,08,25,12,44,23.30
2010,08,25,12,45,23.30
2010,08,25,12,46,23.30
2010,08,25,12,47,23.30
2010,08,25,12,48,23.30
2010,08,25,12,49,23.30
2010,08,25,12,50,23.30
2010,08,25,12,51,23.30
2010,08,25,12,52,23.30
2010,08,25,12,53,23.40
2010,08,25,12,54,23.40
2010,08,25,12,55,23.40
2010,08,25,12,56,23.50
2010,08,25,12,57,23.60
2010,08,25,12,58,23.60
2010,08,25,12,59,23.70
2010,08,25,13,00,23.70
2010,08,25,13,01,23.70
2010,08,25,13,02,23.70
2010,08,25,13,03,23.70
2010,08,25,13,04,23.70
2010,08,25,13,05,23.70
2010,08,25,13,06,23.70
2010,08,25,13,07,23.80
2010,08,25,13,08,23.80
2010,08,25,13,09,23.80
2010,08,25,13,10,23.80
2010,08,25,13,11,23.90
2010,08,25,13,12,23.90
2010,08,25,13,13,23.90
2010,08,25,13,14,23.90
2010,08,25,13,15,24.00
2010,08,25,13,16,24.10
2010,08,25,13,17,24.10
2010,08,25,13,18,24.10
2010,08,25,13,19,24.20
2010,08,25,13,20,24.20
2010,08,25,13,21,24.40
2010,08,25,13,22,24.40
2010,08,25,13,23,24.50
2010,08,25,13,24,24.60
2010,08,25,13,25,24.70
2010,08,25,13,26,24.80
2010,08,25,13,27,24.80
2010,08,25,13,28,24.90
2010,08,25,13,29,24.90
2010,08,25,13,30,24.90
2010,08,25,13,31,25.00
2010,08,25,13,32,25.00
2010,08,25,13,33,25.00
2010,08,25,13,34,25.10
2010,08,25,13,35,25.10
2010,08,25,13,36,25.10
2010,08,25,13,37,25.10
2010,08,25,13,38,25.20
2010,08,25,13,39,25.20
2010,08,25,13,40,25.20
2010,08,25,13,41,25.20
2010,08,25,13,42,25.30
2010,08,25,13,43,25.30
2010,08,25,13,44,25.40
2010,08,25,13,45,25.40
2010,08,25,13,46,25.40
2010,08,25,13,47,25.60
2010,08,25,13,48,25.70
2010,08,25,13,49,25.80
2010,08,25,13,50,25.80
2010,08,25,13,51,25.90
2010,08,25,13,52,25.90
2010,08,25,13,53,25.90
2010,08,25,13,54,25.90
2010,08,25,13,55,25.80
2010,08,25,13,56,25.90
2010,08,25,13,57,25.90
2010,08,25,13,58,25.90
2010,08,25,13,59,25.90
2010,08,25,14,00,25.90
2010,08,25,14,01,25.90
2010,08,25,14,02,25.90
2010,08,25,14,03,25.90
2010,08,25,14,04,25.90
2010,08,25,14,05,26.00
2010,08,25,14,06,25.90
2010,08,25,14,07,25.90
2010,08,25,14,08,25.90
2010,08,25,14,09,25.90
2010,08,25,14,10,25.80
2010,08,25,14,11,25.80
2010,08,25,14,12,25.80
2010,08,25,14,13,25.90
2010,08,25,14,14,26.00
2010,08,25,14,15,26.00
2010,08,25,14,16,26.00
2010,08,25,14,17,26.00
2010,08,25,14,18,26.00
2010,08,25,14,19,26.00
2010,08,25,14,20,26.00
2010,08,25,14,21,25.90
2010,08,25,14,22,25.90
2010,08,25,14,23,25.90
2010,08,25,14,24,25.80
2010,08,25,14,25,25.80
2010,08,25,14,26,25.70
2010,08,25,14,27,25.70
2010,08,25,14,28,25.70
2010,08,25,14,29,25.70
2010,08,25,14,30,25.60
2010,08,25,14,31,25.60
2010,08,25,14,32,25.60
2010,08,25,14,33,25.70
2010,08,25,14,34,25.80
2010,08,25,14,35,26.00
2010,08,25,14,36,26.20
2010,08,25,14,37,26.30
2010,08,25,14,38,26.40
2010,08,25,14,39,26.50
2010,08,25,14,40,26.60
2010,08,25,14,41,26.60
2010,08,25,14,42,26.60
2010,08,25,14,43,26.60
2010,08,25,14,44,26.60
2010,08,25,14,45,26.60
2010,08,25,14,46,26.60
2010,08,25,14,47,26.60
2010,08,25,14,48,26.60
2010,08,25,14,49,26.60
2010,08,25,14,50,26.60
2010,08,25,14,51,26.60
2010,08,25,14,52,26.60
2010,08,25,14,53,26.50
2010,08,25,14,54,26.50
2010,08,25,14,55,26.50
2010,08,25,14,56,26.40
2010,08,25,14,57,26.40
2010,08,25,14,58,26.40
2010,08,25,14,59,26.40
2010,08,25,15,00,26.40
2010,08,25,15,01,26.40
2010,08,25,15,02,26.30
2010,08,25,15,03,26.30
2010,08,25,15,04,26.40
2010,08,25,15,05,26.40
2010,08,25,15,06,26.50
2010,08,25,15,07,26.60
2010,08,25,15,08,26.60
2010,08,25,15,09,26.70
2010,08,25,15,10,26.80
2010,08,25,15,11,26.80
2010,08,25,15,12,26.90
2010,08,25,15,13,26.90
2010,08,25,15,14,27.00
2010,08,25,15,15,27.10
2010,08,25,15,16,27.10
2010,08,25,15,17,27.10
2010,08,25,15,18,27.10
2010,08,25,15,19,27.20
2010,08,25,15,20,27.20
2010,08,25,15,21,27.30
2010,08,25,15,22,27.30
2010,08,25,15,23,27.30
2010,08,25,15,24,27.40
2010,08,25,15,25,27.40
2010,08,25,15,26,27.40
2010,08,25,15,27,27.40
2010,08,25,15,28,27.40
2010,08,25,15,29,27.40
2010,08,25,15,30,27.60
2010,08,25,15,31,27.60
2010,08,25,15,32,27.60
2010,08,25,15,33,27.60
2010,08,25,15,34,27.60
2010,08,25,15,35,27.40
2010,08,25,15,36,27.40
2010,08,25,15,37,27.30
2010,08,25,15,38,27.30
2010,08,25,15,39,27.30
2010,08,25,15,40,27.30
2010,08,25,15,41,27.30
2010,08,25,15,42,27.30
2010,08,25,15,43,27.30
2010,08,25,15,44,27.30
2010,08,25,15,45,27.30
2010,08,25,15,46,27.30
2010,08,25,15,47,27.30
2010,08,25,15,48,27.30
2010,08,25,15,49,27.30
2010,08,25,15,50,27.30
2010,08,25,15,51,27.30
2010,08,25,15,52,27.30
2010,08,25,15,53,27.20
2010,08,25,15,54,27.20
2010,08,25,15,55,27.10
2010,08,25,15,56,27.10
2010,08,25,15,57,27.10
2010,08,25,15,58,27.10
2010,08,25,15,59,27.00
2010,08,25,16,00,26.90
2010,08,25,16,01,26.90
2010,08,25,16,02,26.90
2010,08,25,16,03,27.00
2010,08,25,16,04,27.10
2010,08,25,16,05,27.10
2010,08,25,16,06,27.20
2010,08,25,16,07,27.20
2010,08,25,16,08,27.20
2010,08,25,16,09,27.30
2010,08,25,16,10,27.30
2010,08,25,16,11,27.30
2010,08,25,16,12,27.30
2010,08,25,16,13,27.30
2010,08,25,16,14,27.30
2010,08,25,16,15,27.30
2010,08,25,16,16,27.30
2010,08,25,16,17,27.30
2010,08,25,16,18,27.30
2010,08,25,16,19,27.30
2010,08,25,16,20,27.40
2010,08,25,16,21,27.40
2010,08,25,16,22,27.40
2010,08,25,16,23,27.40
2010,08,25,16,24,27.40
2010,08,25,16,25,27.40
2010,08,25,16,26,27.40
2010,08,25,16,27,27.40
2010,08,25,16,28,27.40
2010,08,25,16,29,27.40
2010,08,25,16,30,27.40
2010,08,25,16,31,27.40
2010,08,25,16,32,27.40
2010,08,25,16,33,27.40
2010,08,25,16,34,27.40
2010,08,25,16,35,27.40
2010,08,25,16,36,27.40
2010,08,25,16,37,27.40
2010,08,25,16,38,27.40
2010,08,25,16,39,27.40
2010,08,25,16,40,27.30
2010,08,25,16,41,27.30
2010,08,25,16,42,27.30
2010,08,25,16,43,27.30
2010,08,25,16,44,27.30
2010,08,25,16,45,27.30
2010,08,25,16,46,27.30
2010,08,25,16,47,27.30
2010,08,25,16,48,27.30
2010,08,25,16,49,27.30
2010,08,25,16,50,27.30
2010,08,25,16,51,27.30
2010,08,25,16,52,27.30
2010,08,25,16,53,27.30
2010,08,25,16,54,27.30
2010,08,25,16,55,27.30
2010,08,25,16,56,27.30
2010,08,25,16,57,27.30
2010,08,25,16,58,27.30
2010,08,25,16,59,27.30
2010,08,25,17,00,27.30
2010,08,25,17,01,27.30
2010,08,25,17,02,27.30
2010,08,25,17,03,27.30
2010,08,25,17,04,27.30
2010,08,25,17,05,27.30
2010,08,25,17,06,27.30
2010,08,25,17,07,27.30
2010,08,25,17,08,27.30
2010,08,25,17,09,27.30
2010,08,25,17,10,27.30
2010,08,25,17,11,27.30
2010,08,25,17,12,27.30
2010,08,25,17,13,27.30
2010,08,25,17,14,27.30
2010,08,25,17,15,27.30
2010,08,25,17,16,27.30
2010,08,25,17,17,27.30
2010,08,25,17,18,27.30
2010,08,25,17,19,27.30